Погода в Воздвиженском

Россия / Ярославская область     57°23′21″N   38°03′27″E
темп.,
°C
ветер,
м/с
пор.,
м/с
влажн.,
%
обл.,
%
осадки,
мм/ч
давл.,
гПа
погр.,
м
20 сентября, пн
пн2000:00+5всв61367100 0.0 1024697
03:00+3всв71575100 0.0 1024615
06:00+3всв71576100 0.0 1023663
09:00+4в71577100 0.2 1024786
12:00+6в81470100 0.1 1023903
15:00+8в81459100 0.1 10221227
18:00+7в81463100 0.0 10221041
21:00+5в71582100 0.2 1022872
21 сентября, вт
вт2100:00+4в71489100 0.1 1022849
03:00+5в61274100 0.4 1020844
06:00+4в71392100 0.6 1019737
09:00+3в61497100 2.7 1019652
12:00+4в61396100 1.4 1019771
15:00+5в61293100 1.4 1018738
18:00+5в51293100 0.3 1018719
21:00+5всв51194100 1.1 1017761
22 сентября, ср
ср2200:00+5всв51195100 1.8 1016878
03:00+5всв61292100 3.3 1016679
06:00+5всв51193100 0.1 1016598
09:00+5всв51192100 1.3 1016594
12:00+5св51193100 2.1 1016693
15:00+5всв51193100 3.4 1016794
18:00+5всв51095100 0.2 1016751
21:00+5всв41095100 0.4 1016548
23 сентября, чт
чт2300:00+6всв389696 0.1 1016365
03:00+6св3697100 0.1 1016292
06:00+6всв3898100 0.4 1015395
09:00+7в3898100 0.8 1015431
12:00+8вюв3697100 0.1 1015502
15:00+9ююв4888100 0.2 1015672
18:00+8юв4991100 0.1 1016427
21:00+7юв3893100 0.2 1016256
24 сентября, пт
пт2400:00+6ююв2395100 0.0 101554
03:00+7ююв2693100 0.0 1014176
06:00+6ююв379594 0.1 1013269
09:00+7ююв499087 0.1 1012548
12:00+9ююв5883100 0.2 1010856
15:00+9ююв588098 0.6 1009697
18:00+8ююв4980100 0.0 1008525
21:00+7ююв41183100 0.1 1008477